TimePST,TemperatureF,Dew PointF,Humidity,Sea Level PressureIn,VisibilityMPH,Wind Direction,Wind SpeedMPH,Gust SpeedMPH,PrecipitationIn,Events,Conditions,WindDirDegrees,DateUTC
12:53 AM,41.0,39.0,93,29.98,6.0,Calm,Calm,-,N/A,,Clear,0,2012-12-27 08:53:00
1:41 AM,39.2,39.2,100,29.99,2.0,Calm,Calm,-,N/A,,Clear,0,2012-12-27 09:41:00
1:51 AM,39.2,39.2,100,29.99,0.8,Calm,Calm,-,N/A,,Clear,0,2012-12-27 09:51:00
1:53 AM,39.0,37.9,96,29.99,0.5,Calm,Calm,-,N/A,Fog,Fog,0,2012-12-27 09:53:00
2:16 AM,37.4,35.6,93,29.98,3.0,Calm,Calm,-,N/A,,Clear,0,2012-12-27 10:16:00
2:18 AM,39.2,35.6,87,29.98,1.5,Calm,Calm,-,N/A,,Clear,0,2012-12-27 10:18:00
2:28 AM,37.4,35.6,93,29.99,0.5,Calm,Calm,-,N/A,Fog,Fog,0,2012-12-27 10:28:00
2:53 AM,37.0,36.0,96,29.98,0.5,Calm,Calm,-,N/A,Fog,Fog,0,2012-12-27 10:53:00
3:18 AM,39.2,37.4,93,29.97,1.0,Calm,Calm,-,N/A,,Clear,0,2012-12-27 11:18:00
3:20 AM,39.2,37.4,93,29.97,3.0,Calm,Calm,-,N/A,,Clear,0,2012-12-27 11:20:00
3:53 AM,41.0,39.9,96,29.97,6.0,ENE,3.5,-,N/A,,Clear,60,2012-12-27 11:53:00
5:49 AM,35.6,33.8,93,29.99,1.8,Calm,Calm,-,N/A,,Clear,0,2012-12-27 13:49:00
5:50 AM,36.0,34.0,93,29.99,1.8,Calm,Calm,-,N/A,,Clear,0,2012-12-27 13:50:00
5:55 AM,33.8,33.8,100,29.99,0.5,Calm,Calm,-,N/A,Fog,Fog,0,2012-12-27 13:55:00
6:15 AM,35.6,33.8,93,29.99,1.0,Calm,Calm,-,N/A,,Clear,0,2012-12-27 14:15:00
6:21 AM,35.6,33.8,93,30.00,3.0,Calm,Calm,-,N/A,,Clear,0,2012-12-27 14:21:00
6:31 AM,33.8,33.8,100,30.00,1.8,North,4.6,-,N/A,,Clear,10,2012-12-27 14:31:00
6:41 AM,37.4,35.6,93,30.00,3.0,NNE,5.8,-,N/A,,Clear,30,2012-12-27 14:41:00
6:53 AM,36.0,36.0,100,30.01,7.0,NNE,4.6,-,N/A,,Scattered Clouds,20,2012-12-27 14:53:00
7:53 AM,37.9,37.0,97,30.02,7.0,Calm,Calm,-,N/A,,Partly Cloudy,0,2012-12-27 15:53:00
8:53 AM,45.0,42.1,90,30.04,10.0,Calm,Calm,-,N/A,,Scattered Clouds,0,2012-12-27 16:53:00
9:53 AM,48.9,44.1,83,30.04,10.0,Calm,Calm,-,N/A,,Scattered Clouds,0,2012-12-27 17:53:00
10:53 AM,54.0,43.0,66,30.03,10.0,Calm,Calm,-,N/A,,Scattered Clouds,0,2012-12-27 18:53:00
11:53 AM,55.9,39.0,53,30.00,10.0,Variable,3.5,-,N/A,,Scattered Clouds,0,2012-12-27 19:53:00
12:53 PM,57.9,33.1,39,29.98,10.0,SW,5.8,-,N/A,,Partly Cloudy,230,2012-12-27 20:53:00
1:53 PM,57.9,33.1,39,29.97,10.0,West,4.6,-,N/A,,Partly Cloudy,270,2012-12-27 21:53:00
2:53 PM,59.0,32.0,36,29.97,10.0,SSW,3.5,-,N/A,,Partly Cloudy,200,2012-12-27 22:53:00
4:53 PM,53.1,35.1,50,30.00,10.0,SW,3.5,-,N/A,,Partly Cloudy,230,2012-12-28 00:53:00
5:53 PM,50.0,36.0,59,30.02,10.0,SE,3.5,-,N/A,,Partly Cloudy,140,2012-12-28 01:53:00
6:53 PM,48.0,37.9,68,30.04,10.0,Calm,Calm,-,N/A,,Clear,0,2012-12-28 02:53:00
7:53 PM,43.0,37.0,80,30.06,10.0,Calm,Calm,-,N/A,,Clear,0,2012-12-28 03:53:00
8:53 PM,46.9,36.0,66,30.07,9.0,Calm,Calm,-,N/A,,Clear,0,2012-12-28 04:53:00
9:53 PM,39.0,33.1,79,30.10,8.0,Calm,Calm,-,N/A,,Clear,0,2012-12-28 05:53:00
10:53 PM,45.0,32.0,60,30.12,10.0,NE,4.6,-,N/A,,Clear,40,2012-12-28 06:53:00
11:53 PM,44.1,36.0,73,30.12,9.0,ENE,3.5,-,N/A,,Clear,70,2012-12-28 07:53:00